Location: Newark
(47.5833°N, 8.1500°E)
Time: 08:52:28
(UTC+00:00)

Vanguard 1 - Pass Details

Date: 30 October 2020
Orbit: 650 x 3833 km, 34.2° (Epoch: 29 November)

Event Time Altitude Azimuth Distance (km) Brightness Sun altitude
Rises 09:58:26 0° 207° (SSW) 6,835 15.0 26.3°
Reaches altitude 10° 10:03:18 10° 198° (SSW) 6,184 15.1 26.6°
Maximum altitude 10:20:47 34° 143° (SE) 5,146 15.3 27.4°
Drops below altitude 10° 10:39:18 10° 89° (E) 6,610 14.5 28.0°
Sets 10:44:39 0° 82° (E) 7,349 14.5 28.1°
